Home   Weather   Cambridge   Past weeks

Flag for United Kingdom Past Weather in Cambridge, England, United Kingdom — Yesterday and Last 2 Weeks

Now
52 °F

Clear.


Feels Like: 49 °F
Forecast: 47 / 60 °F
Wind: 8 mph from Southwest

Location: Mildenhall Royal Air Force Base

Current Time: Sep 30, 2016 at 2:41:39 AM

Latest Report: Sep 30, 2016 at 1:58 AM


Visibility: N/A

Pressure: 29.90 "Hg

Humidity: 90%

Dew Point: 49 °F

Location of CambridgeLocation

Past Weather in Cambridge — Graph

°F

Cambridge Temperature Yesterday

Maximum temperature yesterday: 66 °F (at 12:58 PM)
Minimum temperature yesterday: 51 °F (at 9:58 PM)
Average temperature yesterday: 62 °F

High & Low Weather Summary for the Past Weeks

 TemperatureHumidityPressure
High85 °F (Sep 15, 2:58 PM)100% (Sep 15, 12:58 AM)30.26 "Hg (Sep 15, 12:58 AM)
Low46 °F (Sep 23, 4:58 AM)43% (Sep 23, 2:58 PM)29.75 "Hg (Sep 15, 8:58 PM)
Average61 °F87%30.05 "Hg
* Reported Sep 15 12:58 AM — Sep 30 12:58 AM, Cambridge, Weather by CustomWeather, © 2016

Note: Actual official high and low records may vary slightly from our data, if they occured in-between our weather recording intervals... More about our weather records

Advertising

Cambridge Weather History for the Previous 24 Hours

Scroll right to see more
 ConditionsComfort  
Time TempWeatherWind HumidityBarometerVisibility
12:58 AM
Fri, Sep 30
52 °FClear.8 mph88%29.91 "HgN/A
11:58 PM
Thu, Sep 29
53 °FClear.9 mph86%29.91 "HgN/A
10:58 PM51 °FClear.9 mph91%29.91 "HgN/A
9:58 PM51 °FClear.6 mph83%29.91 "HgN/A
8:58 PM53 °FClear.8 mph78%29.91 "HgN/A
7:58 PM54 °FClear.7 mph74%29.90 "HgN/A
6:58 PM60 °FPassing clouds.8 mph69%29.89 "HgN/A
6:03 PM63 °FPassing clouds.12 mph59%29.87 "HgN/A
5:58 PM63 °FPartly sunny.9 mph59%29.88 "HgN/A
4:58 PM64 °FPassing clouds.17 mph59%29.86 "HgN/A
3:58 PM65 °FSunny.17 mph52%29.86 "HgN/A
2:58 PM65 °FScattered clouds.20 mph51%29.87 "HgN/A
1:58 PM66 °FPassing clouds.20 mph49%29.87 "HgN/A
12:58 PM66 °FSunny.21 mph52%29.88 "HgN/A
11:58 AM65 °FPassing clouds.21 mph64%29.88 "HgN/A
7:58 AM65 °FOvercast.20 mph86%29.88 "HgN/A
6:58 AM65 °FMostly cloudy.17 mph85%29.88 "HgN/A
5:58 AM65 °FMostly cloudy.18 mph87%29.90 "HgN/A
4:58 AM65 °FOvercast.20 mph90%29.91 "HgN/A
4:03 AM64 °FOvercast.14 mph94%29.93 "HgN/A
3:58 AM64 °FOvercast.16 mph95%29.94 "HgN/A
2:58 AM64 °FOvercast.21 mph97%29.96 "HgN/A
Weather by CustomWeather, © 2016

See weather overviewHow to use our weather pages